Regional Weather Roundup
Issued by NWS

Home | Current Version | Previous Version | Text Only | Print | Product List | Glossary On
Versions: 1 2 3 4 5 6 7 8 9 10 11 12 13 14 15 16 17 18 19 20 21 22 23 24 25 26 27 28 29 30 31 32 33 34 35 36 37 38 39 40 41 42 43 44 45 46 47 48 49 50
000
ASPQ40 PGUM 212012
RWRPQ
WEATHER ROUNDUP FOR THE MARIANAS AND MICRONESIA
NATIONAL WEATHER SERVICE TIYAN GU
600 AM CHST MON SEP 22 2014

GUZ001>004-212100-
MARIANA ISLANDS-

CITY           SKY/WX    TMP DP  RH WIND       PRES   REMARKS
GUAM AIRPORT   CLEAR     79  75  89 N3        29.80R
ANDERSEN AFB   PTCLDY    79  77  94 N5        29.79S
ROTA AIRPORT   PTCLDY    81  77  89 NE6       29.80
TINIAN AP      NOT AVBL
SAIPAN AP      PTCLDY    81  77  89 NE9       29.79R

$$

PMZ161-212100-
REPUBLIC OF PALAU-

CITY           SKY/WX    TMP DP  RH WIND       PRES   REMARKS
KOROR AP       MOCLDY    75  75 100 CALM      29.81
KOROR WSO      PTCLDY    79  75  89 CALM      29.82R

$$

PMZ171>174-212100-
FEDERATED STATES OF MICRONESIA-

CITY           SKY/WX    TMP DP  RH WIND       PRES   REMARKS
YAP AIRPORT    MOCLDY    79  77  94 CALM      29.79R
CHUUK AP       CLOUDY    81  77  89 SW9       29.78R
POHNPEI AP     NOT AVBL
POHNPEI WSO    NOT AVBL
KOSRAE AP      NOT AVBL

$$

PMZ181-212100-
REPUBLIC OF THE MARSHALL ISLANDS-

CITY           SKY/WX    TMP DP  RH WIND       PRES   REMARKS
KWAJALEIN AP   MOSUNNY   82  73  74 NE6       29.83R
MAJURO AP      NOT AVBL
MAJURO WSO     PTSUNNY   79  77  94 W13       29.82R

$$




USA.gov is the U.S. government's official web portal to all federal, state and local government web resources and services.